Change the Weather History Date:

Wednesday, November 6, 2013

  Actual Average Record
Temperature  
Mean Temperature 58 °F -  
Max Temperature 69 °F 67 °F 80 °F (2006)
Min Temperature 48 °F 47 °F 41 °F (2014)
Degree Days  
Heating Degree Days 6    
Growing Degree Days 8 (Base 50)    
Moisture  
Dew Point 50 °F    
Average Humidity 77    
Maximum Humidity 94    
Minimum Humidity 52    
Precipitation  
Precipitation 0.00 in - - ()
Sea Level Pressure  
Sea Level Pressure 30.28 in    
Wind  
Wind Speed 4 mph (WSW)    
Max Wind Speed 9 mph    
Max Gust Speed 21 mph    
Visibility 8 miles    
Events      
Averages and records for this station are not official NWS values.
T = Trace of Precipitation, MM = Missing Value Source: NWS Daily Summary

Daily Weather History Graph

Daily Weather History Graph

Search for Another Location

Airport or City:

Trip Planner

Search our weather history database for the weather conditions in past years. The results will help you decide how hot, cold, wet, or windy it might be!

Date:

Astronomy

Nov. 06, 2013 Rise Set
Actual Time 6:26 AM HST 5:45 PM HST
Civil Twilight 6:03 AM HST 6:08 PM HST
Nautical Twilight 5:36 AM HST 6:34 PM HST
Astronomical Twilight 5:10 AM HST 7:00 PM HST
Moon 9:41 AM HST (11/6) 9:10 PM HST (11/6)
Length of Visible Light 12h 05m
Length of Day
11h 19m
Waxing Crescent, 15% of the Moon is Illuminated
Nov 6
Waxing Crescent
Nov 9
First Quarter
Nov 17
Full
Nov 25
Last Quarter
Dec 2
New

Hourly Weather History & Observations

Time (HST) Temp. Dew Point Humidity Pressure Visibility Wind Dir Wind Speed Gust Speed Precip Events Conditions
12:56 AM 54.1 °F 47.5 °F 78% 30.30 in 12.0 mi ESE 4.6 mph - N/A   Scattered Clouds
1:56 AM 51.3 °F 45.9 °F 82% 30.30 in 12.0 mi ESE 2.3 mph - N/A   Partly Cloudy
2:56 AM 51.1 °F 45.3 °F 81% 30.29 in 12.0 mi ESE 4.6 mph - N/A   Mostly Cloudy
3:56 AM 49.3 °F 44.1 °F 82% 30.28 in 12.0 mi SE 4.6 mph - N/A   Partly Cloudy
4:56 AM 49.3 °F 42.1 °F 76% 30.27 in 12.0 mi ESE 4.6 mph - N/A   Clear
5:56 AM 48.4 °F 42.4 °F 80% 30.29 in 12.0 mi WSW 2.3 mph - N/A   Clear
6:56 AM 49.5 °F 43.9 °F 81% 30.31 in 6.0 mi ESE 3.5 mph - N/A   Clear
7:56 AM 57.4 °F 47.5 °F 70% 30.31 in 12.0 mi SE 1.2 mph - N/A   Clear
8:56 AM 63.9 °F 48.7 °F 58% 30.32 in 12.0 mi West 6.9 mph - N/A   Clear
9:56 AM 63.9 °F 52.0 °F 65% 30.32 in 12.0 mi WSW 6.9 mph - N/A   Clear
10:56 AM 65.5 °F 52.7 °F 63% 30.31 in 12.0 mi WSW 6.9 mph 13.8 mph N/A   Partly Cloudy
11:56 AM 68.2 °F 50.0 °F 52% 30.29 in 11.0 mi West 8.1 mph 15.0 mph N/A   Partly Cloudy
12:56 PM 69.1 °F 51.6 °F 54% 30.27 in 12.0 mi WSW 6.9 mph - N/A   Clear
1:56 PM 69.8 °F 51.4 °F 52% 30.24 in 12.0 mi WSW 9.2 mph 20.7 mph N/A   Clear
2:56 PM 66.9 °F 52.0 °F 59% 30.23 in 9.0 mi WSW 9.2 mph - N/A   Clear
3:56 PM 63.9 °F 54.0 °F 70% 30.24 in 7.0 mi West 9.2 mph - N/A   Clear
4:56 PM 62.4 °F 54.0 °F 74% 30.24 in 8.0 mi West 9.2 mph - N/A   Clear
5:56 PM 57.2 °F 54.1 °F 89% 30.26 in 4.0 mi WSW 3.5 mph - N/A   Clear
6:56 PM 57.2 °F 53.2 °F 87% 30.27 in 5.0 mi NNE 2.3 mph - N/A   Scattered Clouds
7:56 PM 56.3 °F 50.5 °F 81% 30.29 in 6.0 mi North 1.2 mph - N/A   Scattered Clouds
8:06 PM 57.2 °F 51.8 °F 82% 30.29 in 5.0 mi West 3.5 mph - N/A   Mostly Cloudy
8:31 PM 55.4 °F 53.6 °F 94% 30.29 in 4.0 mi Calm Calm - N/A   Scattered Clouds
8:56 PM 54.9 °F 52.2 °F 91% 30.30 in 4.0 mi NW 1.2 mph - N/A   Scattered Clouds
9:06 PM 55.4 °F 51.8 °F 88% 30.30 in 5.0 mi NNE 2.3 mph - N/A   Mostly Cloudy
9:36 PM 57.2 °F 53.6 °F 88% 30.30 in 4.0 mi WNW 1.2 mph - N/A   Scattered Clouds
9:56 PM 54.3 °F 51.6 °F 91% 30.30 in 4.0 mi North 1.2 mph - N/A   Partly Cloudy
10:56 PM 52.0 °F 49.8 °F 92% 30.29 in 4.0 mi ESE 3.5 mph - N/A   Clear
11:56 PM 51.8 °F 48.6 °F 89% 30.28 in 6.0 mi East 3.5 mph - N/A   Partly Cloudy